FW9022 Weather Reports


Display with metric or nautical units.
time (UTC)temp
F
wind
direction
speed
MPH
gust
MPH
rain 1hr
in
rain 24hr
in
rain mn
in
humidity
%
barometer
mb
20260905031823 73 200 0.0 0.0 0.00 0.00 0.00 94 1017.6
20260905030847 74 200 0.0 0.0 0.00 0.00 0.00 94 1018.0
20260905025831 74 200 0.0 1.0 0.00 0.00 0.00 93 1018.0
20260905024845 74 200 0.0 0.0 0.00 0.00 0.00 93 1018.0
20260905023818 74 200 0.0 1.0 0.00 0.00 0.00 93 1018.3
20260905022817 74 200 0.0 0.0 0.00 0.00 0.00 93 1018.1
20260905021831 75 200 0.0 0.0 0.00 0.00 0.00 92 1018.1
20260905020837 75 200 0.0 0.0 0.00 0.00 0.00 92 1018.6
20260905015856 76 200 0.0 0.0 0.00 0.00 0.00 91 1018.7
20260905014834 76 200 0.0 1.0 0.00 0.00 0.00 91 1018.7
20260905013828 76 200 0.0 0.0 0.00 0.00 0.00 91 1018.7
20260905012823 76 200 0.0 0.0 0.00 0.00 0.00 90 1018.6
20260905011817 77 200 0.0 0.0 0.00 0.00 0.00 89 1018.6
20260905010846 77 200 0.0 1.0 0.00 0.00 0.00 89 1018.2
20260905005825 78 200 0.0 1.0 0.00 0.00 0.00 88 1018.0
20260905004820 79 200 0.0 0.0 0.00 0.00 0.00 87 1018.0
20260905003854 79 200 0.0 0.0 0.00 0.00 0.00 85 1017.6
20260905002832 80 200 0.0 0.0 0.00 0.00 0.00 84 1017.6
20260905001847 81 200 0.0 0.0 0.00 0.00 0.00 82 1017.6
20260905000910 81 200 0.0 0.0 0.00 0.00 0.00 81 1017.8
20260904235829 82 200 0.0 0.0 0.00 0.00 0.00 78 1017.6
20260904234827 83 200 0.0 0.0 0.00 0.00 0.00 79 1017.6
20260904233821 85 200 0.0 0.0 0.00 0.00 0.00 77 1017.2
20260904232835 86 200 0.0 2.0 0.00 0.00 0.00 74 1016.9
20260904231853 86 200 0.0 4.0 0.00 0.00 0.00 70 1016.9
20260904230856 87 132 2.0 7.0 0.00 0.00 0.00 70 1016.9
20260904225835 87 140 0.0 5.0 0.00 0.00 0.00 70 1016.7
20260904224849 88 130 1.0 4.0 0.00 0.00 0.00 69 1016.7
20260904223827 88 178 1.0 4.0 0.00 0.00 0.00 67 1016.7
20260904222821 88 137 1.0 5.0 0.00 0.00 0.00 66 1016.7
20260904221835 89 227 2.0 8.0 0.00 0.00 0.00 66 1016.7
20260904220840 89 187 0.0 4.0 0.00 0.00 0.00 64 1016.8
20260904215825 89 136 0.0 5.0 0.00 0.00 0.00 63 1017.7
20260904214819 90 138 4.0 9.0 0.00 0.00 0.00 63 1017.7
20260904213853 90 158 1.0 5.0 0.00 0.00 0.00 63 1017.6
20260904212826 89 161 1.0 6.0 0.00 0.00 0.00 63 1016.9
20260904211825 89 202 1.0 7.0 0.00 0.00 0.00 63 1016.9
20260904210850 89 119 1.0 5.0 0.00 0.00 0.00 64 1017.6
20260904205829 89 129 1.0 6.0 0.00 0.00 0.00 63 1017.7
20260904204828 90 172 2.0 5.0 0.00 0.00 0.00 61 1017.7
20260904203822 90 173 3.0 6.0 0.00 0.00 0.00 59 1017.7
20260904202836 91 137 3.0 11.0 0.00 0.00 0.00 60 1018.0
20260904201851 92 138 1.0 9.0 0.00 0.00 0.00 59 1018.0
20260904200838 91 156 2.0 7.0 0.00 0.00 0.00 60 1018.0
20260904195837 91 126 1.0 5.0 0.00 0.00 0.00 62 1018.2
20260904194831 90 132 4.0 10.0 0.00 0.00 0.00 62 1018.2
20260904193829 91 128 0.0 11.0 0.00 0.00 0.00 61 1018.4
20260904192823 92 227 4.0 7.0 0.00 0.00 0.00 60 1018.7
20260904191837 91 116 1.0 3.0 0.00 0.00 0.00 59 1018.7
20260904190841 91 73 2.0 3.0 0.00 0.00 0.00 56 1018.8
20260904185844 92 141 1.0 3.0 0.00 0.00 0.00 59 1019.0
20260904184837 91 13 2.0 4.0 0.00 0.00 0.00 56 1019.0
20260904183831 91 168 1.0 2.0 0.00 0.00 0.00 59 1019.2
20260904182825 90 168 0.0 2.0 0.00 0.00 0.00 58 1019.4
20260904181824 90 26 0.0 4.0 0.00 0.00 0.00 56 1019.4
20260904180849 92 55 0.0 3.0 0.00 0.00 0.00 55 1019.3
20260904175828 90 214 2.0 6.0 0.00 0.00 0.00 56 1019.7
20260904174828 90 360 1.0 5.0 0.00 0.00 0.00 57 1019.7
20260904173822 90 42 0.0 3.0 0.00 0.00 0.00 58 1019.8
20260904172836 90 56 1.0 5.0 0.00 0.00 0.00 59 1020.2
20260904171851 89 10 3.0 6.0 0.00 0.00 0.00 60 1020.2
20260904170839 90 328 1.0 2.0 0.00 0.00 0.00 64 1020.2
20260904165818 89 32 1.0 4.0 0.00 0.00 0.00 62 1020.3
20260904164832 89 355 1.0 5.0 0.00 0.00 0.00 62 1020.3
20260904163826 89 17 0.0 3.0 0.00 0.00 0.00 64 1020.5
20260904162824 88 17 1.0 5.0 0.00 0.00 0.00 64 1020.8
20260904161818 88 13 3.0 4.0 0.00 0.00 0.00 64 1020.8
20260904160902 88 360 0.0 4.0 0.00 0.00 0.00 65 1020.7
20260904155838 89 93 1.0 2.0 0.00 0.00 0.00 66 1020.7
20260904154835 88 254 0.0 2.0 0.00 0.00 0.00 67 1020.7
20260904153828 88 134 0.0 3.0 0.00 0.00 0.00 67 1020.9
20260904152823 87 227 0.0 3.0 0.00 0.00 0.00 69 1020.9
20260904151841 86 168 0.0 1.0 0.00 0.00 0.00 72 1020.9
20260904150845 86 168 0.0 4.0 0.00 0.00 0.00 71 1021.0
20260904145824 85 133 1.0 3.0 0.00 0.00 0.00 70 1021.0
20260904144837 85 160 0.0 3.0 0.00 0.00 0.00 74 1021.0
20260904143835 84 205 0.0 3.0 0.00 0.00 0.00 74 1021.0
20260904142829 83 137 1.0 3.0 0.00 0.00 0.00 75 1020.2
20260904141843 82 137 0.0 0.0 0.00 0.00 0.00 78 1020.2
20260904140846 81 137 0.0 0.0 0.00 0.00 0.00 80 1020.4
20260904135829 80 138 0.0 0.0 0.00 0.00 0.00 82 1020.3
20260904134823 79 138 0.0 2.0 0.00 0.00 0.00 82 1020.3
20260904133837 78 138 0.0 0.0 0.00 0.00 0.00 86 1020.4
20260904132836 77 138 0.0 1.0 0.00 0.00 0.00 87 1020.7
20260904131849 75 138 0.0 2.0 0.00 0.00 0.00 90 1020.7
20260904130913 73 137 0.0 1.0 0.00 0.00 0.00 94 1020.8
20260904125831 71 138 0.0 1.0 0.00 0.00 0.00 98 1020.1
20260904124828 69 138 0.0 0.0 0.00 0.00 0.00 99 1020.1
20260904123822 68 138 0.0 0.0 0.00 0.00 0.00 98 1020.3
20260904122836 67 138 0.0 0.0 0.00 0.00 0.00 98 1020.2
20260904121830 66 138 0.0 0.0 0.00 0.00 0.00 98 1020.2
20260904120837 66 138 0.0 0.0 0.00 0.00 0.00 98 1020.9
20260904115835 66 138 0.0 0.0 0.00 0.00 0.00 98 1020.1
20260904114829 65 138 0.0 0.0 0.00 0.00 0.00 98 1020.1
20260904113827 65 137 0.0 0.0 0.00 0.00 0.00 97 1019.9
20260904112822 65 137 0.0 0.0 0.00 0.00 0.00 98 1019.6
20260904111835 65 138 0.0 0.0 0.00 0.00 0.00 98 1019.6
20260904110859 65 138 0.0 0.0 0.00 0.00 0.00 97 1019.9
20260904105841 66 137 0.0 0.0 0.00 0.00 0.00 97 1019.7
20260904104834 66 138 0.0 0.0 0.00 0.00 0.00 97 1019.7
20260904103828 66 138 0.0 0.0 0.00 0.00 0.00 97 1019.4
20260904102842 66 138 0.0 0.0 0.00 0.00 0.00 98 1019.4
20260904101838 66 138 0.0 0.0 0.00 0.00 0.00 97 1019.4
20260904100841 66 138 0.0 0.0 0.00 0.00 0.00 97 1019.3
20260904095820 66 138 0.0 0.0 0.00 0.00 0.00 97 1019.1
20260904094833 67 138 0.0 0.0 0.00 0.00 0.00 97 1019.1
20260904093832 66 138 0.0 0.0 0.00 0.00 0.00 97 1019.4
20260904092825 66 138 0.0 0.0 0.00 0.00 0.00 97 1019.1
20260904091900 67 138 0.0 1.0 0.00 0.00 0.00 97 1019.1
20260904090843 67 138 0.0 0.0 0.00 0.00 0.00 97 1019.0
20260904085826 67 137 0.0 0.0 0.00 0.00 0.00 97 1019.0
20260904084840 67 138 0.0 0.0 0.00 0.00 0.00 97 1019.0
20260904083832 67 138 0.0 0.0 0.00 0.00 0.00 97 1018.9
20260904082826 67 138 0.0 0.0 0.00 0.00 0.00 97 1018.8
20260904081823 67 138 0.0 0.0 0.00 0.00 0.00 97 1018.8
20260904080848 67 137 0.0 0.0 0.00 0.00 0.00 97 1018.8
20260904075824 68 138 0.0 0.0 0.00 0.00 0.00 97 1018.6
20260904074843 68 138 0.0 0.0 0.00 0.00 0.00 97 1018.6
20260904073834 68 138 0.0 0.0 0.00 0.00 0.00 97 1018.7
20260904072848 68 138 0.0 0.0 0.00 0.00 0.00 97 1018.6
20260904071820 68 137 0.0 0.0 0.00 0.00 0.00 97 1018.6
20260904070848 68 138 0.0 0.0 0.00 0.00 0.00 96 1019.6
20260904065826 68 138 0.0 0.0 0.00 0.00 0.00 96 1019.8
20260904064839 68 138 0.0 0.0 0.00 0.00 0.00 96 1019.8
20260904063831 69 137 0.0 0.0 0.00 0.00 0.00 97 1019.8
20260904062829 69 138 0.0 0.0 0.00 0.00 0.00 96 1020.2
20260904061822 69 137 0.0 0.0 0.00 0.00 0.00 96 1020.2
20260904060847 69 137 0.0 0.0 0.00 0.00 0.00 96 1020.3
20260904055825 69 138 0.0 0.0 0.00 0.00 0.00 96 1020.4
20260904054823 69 138 0.0 0.0 0.00 0.00 0.00 96 1020.4
20260904053836 69 138 0.0 0.0 0.00 0.00 0.00 96 1020.4
20260904052829 70 137 0.0 0.0 0.00 0.00 0.00 96 1020.5
20260904051828 70 138 0.0 0.0 0.00 0.00 0.00 96 1020.5
20260904050832 70 138 0.0 0.0 0.00 0.00 0.00 96 1020.6
20260904045831 70 138 0.0 0.0 0.00 0.00 0.00 96 1020.8
20260904044825 70 138 0.0 0.0 0.00 0.00 0.00 96 1020.8
20260904043843 70 137 0.0 0.0 0.00 0.00 0.00 95 1020.7
20260904042856 70 138 0.0 0.0 0.00 0.00 0.00 95 1020.8
20260904041829 71 138 0.0 0.0 0.00 0.00 0.00 95 1020.8
20260904040834 71 138 0.0 0.0 0.00 0.00 0.00 95 1020.9
20260904035837 71 138 0.0 0.0 0.00 0.00 0.00 95 1020.8
20260904034830 71 138 0.0 0.0 0.00 0.00 0.00 95 1020.8
20260904033824 71 137 0.0 0.0 0.00 0.00 0.00 95 1020.8
20260904032822 71 137 0.0 0.0 0.00 0.00 0.00 95 1020.8